Tracking 19832 objects as of 25-Aug-2019
HD Live streaming from Space Station
objects crossing your sky now

COSMOS 2251 DEB

Track COSMOS 2251 DEB now!
10-day predictions


NORAD ID: 35449
Int'l Code: 1993-036AKT
Perigee: 644.5 km
Apogee: 705.8 km
Inclination: 74.0 °
Period: 98.1 minutes
Semi major axis: 7046 km
RCS: 0.0069 m2 (small)
Launch date: June 16, 1993
Source: Commonwealth of Independent States (former USSR) (CIS)
Launch site: PLESETSK MISSILE AND SPACE COMPLEX (PKMTR)

Note: This is SATELLITE DEBRIS
aabbcc
Your satellite tracking list
Your tracking list is empty




NASA's NSSDC Master Catalog

Two Line Element Set (TLE):
1 35449U 93036AKT 13354.38275418 +.00020397 +00000-0 +35162-2 0  9990
2 35449 073.9569 246.6091 0043492 107.8930 255.4606 14.67834727250491
Source of the keplerian elements: AFSPC